Tracking 19854 objects as of 23-Sep-2019
HD Live streaming from Space Station
objects crossing your sky now

FENGYUN 1C DEB

Track FENGYUN 1C DEB now!
10-day predictions


NORAD ID: 37901
Int'l Code: 1999-025ENA
Perigee: 575.5 km
Apogee: 750.9 km
Inclination: 97.9 °
Period: 97.9 minutes
Semi major axis: 7034 km
RCS: 0.0035 m2 (small)
Launch date: May 10, 1999
Source: People's Republic of China (PRC)
Launch site: Taiyaun Space Center, China (TSC)

Note: This is SATELLITE DEBRIS
aabbcc
Your satellite tracking list
Your tracking list is empty




NASA's NSSDC Master Catalog

Two Line Element Set (TLE):
1 37901U 99025ENA 19264.07019848  .00002174  00000-0  31776-3 0  9995
2 37901  97.9165 350.8324 0124699 230.0452 128.9749 14.71569985521756
Source of the keplerian elements: AFSPC